Regional Weather Roundup
Issued by NWS

Home | Current Version | Previous Version | Text Only | Print | Product List | Glossary On
Versions: 1 2 3 4 5 6 7 8 9 10 11 12 13 14 15 16 17 18 19 20 21 22 23 24 25 26 27 28 29 30 31 32 33 34 35 36 37 38 39 40 41 42 43 44 45 46 47 48 49 50
000
ASUS46 KSEW 190120
RWRWA

WASHINGTON REGIONAL WEATHER ROUNDUP
NATIONAL WEATHER SERVICE SEATTLE WA
500 PM PST MON NOV 18 2019

NOTE:"FAIR" INDICATES FEW OR NO CLOUDS BELOW 12,000 FEET WITH NO
SIGNIFICANT WEATHER AND/OR OBSTRUCTIONS TO VISIBILITY.

WAZ507-509-555>559-190200-
SEATTLE, TACOMA, EVERETT, AND VICINITY

CITY           SKY/WX    TMP DP  RH WIND       PRES   REMARKS
EVERETT        LGT RAIN  49  46  90 VRB7      29.68F
BOEING FIELD   LGT RAIN  50  46  86 SE7       29.68F FOG
RENTON         LGT RAIN  50  47  89 S5        29.68F
SEATAC AIRPORT LGT RAIN  49  46  90 SE6       29.68F
JBLM-MCCHORD   CLOUDY    48  48 100 E5        29.66
PUYALLUP       DRIZZLE   48  48 100 CALM      29.68F
BREMERTON      LGT RAIN  48  46  93 CALM      29.66F
JBLM-FT LEWIS  LGT RAIN  48  48 100 NE6       29.66F FOG
TACOMA NARROWS LGT RAIN  47  47 100 CALM      29.68F FOG
$$

WAZ001-503-506-510-514-515-190200-
NORTH INTERIOR

CITY           SKY/WX    TMP DP  RH WIND       PRES   REMARKS
BELLINGHAM     LGT RAIN  50  45  83 N6        29.70F
FRIDAY HARBOR  LGT RAIN  48  47  96 N6        29.69F
EASTSOUND      RAIN      48  48 100 N6        29.67F
PORT ANGELES   LGT RAIN  47  46  97 CALM      29.66F
EDIZ HOOK      CLOUDY    47  47 100 E5        29.66F
PORT TOWNSEND  CLOUDY    48  48 100 E3        29.64F
NAS WHIDBEY    LGT RAIN  51  46  83 E12       29.71F
ARLINGTON      LGT RAIN  48  47  96 N6        29.68F
BURLINGTON     CLOUDY    48  48 100 E12       29.67F
$$

WAZ020-022-039-040-504-511-512-190200-
SOUTHWEST INTERIOR

CITY           SKY/WX    TMP DP  RH WIND       PRES   REMARKS
SHELTON        LGT RAIN  49  49 100 CALM      29.64F FOG
OLYMPIA        LGT RAIN  48  46  93 E3        29.65F FOG
CHEHALIS       LGT RAIN  52  52 100 SW6       29.65F
KELSO          LGT RAIN  54  52  94 SE12      29.67F
VANCOUVER      CLOUDY    53  50  89 E9        29.70F
SCAPPOOSE, OR  LGT RAIN  53  52  96 CALM      29.69F FOG
PORTLAND, OR   LGT RAIN  52  51  97 E17       29.72S
$$

WAZ021-516-517-190200-
WASHINGTON COAST

CITY           SKY/WX    TMP DP  RH WIND       PRES   REMARKS
FORKS          RAIN      48  47  96 CALM      29.60F FOG
HOQUIAM        LGT RAIN  50  50 100 E13       29.64S
ASTORIA, OR    LGT RAIN  55  53  93 S14G23    29.65R
$$

WAZ019-023-024-040-567>569-190200-
CASCADE MOUNTAINS AND COLUMBIA GORGE

CITY           SKY/WX    TMP DP  RH WIND       PRES   REMARKS
STAMPEDE PASS  CLOUDY    38  35  89 VRB3      29.72F FOG
TROUTDALE, OR  LGT RAIN  52  48  86 E14       29.72F FOG
HOOD RIVER, OR LGT RAIN  48  46  93 CALM      29.74F
THE DALLES, OR CLOUDY    51  45  79 CALM      29.75F
$$

WAZ026-027-041>044-520-521-190200-
EAST SLOPES

CITY           SKY/WX    TMP DP  RH WIND       PRES   REMARKS
OMAK           LGT RAIN  42  38  85 N7        29.83F
WENATCHEE      CLOUDY    42  39  89 SW5       29.82S
ELLENSBURG     LGT RAIN  44  38  79 NE6       29.77R
YAKIMA         CLOUDY    47  38  71 NE6       29.77S
SUNNYSIDE ARPT CLOUDY    46  44  93 CALM      29.78
YAKIMA TC      MOCLDY    46  38  74 NE6       29.75R
$$

WAZ028-034-035-190200-
COLUMBIA BASIN

CITY           SKY/WX    TMP DP  RH WIND       PRES   REMARKS
EPHRATA        CLOUDY    49  44  83 N10       29.76F
MOSES LAKE     CLOUDY    49  44  83 NW5       29.77F
PASCO          CLOUDY    49  44  83 S3        29.78F
RICHLAND ARPT  CLOUDY    47  44  89 W3        29.81R
HERMISTON, OR  CLOUDY    49  44  83 SE9       29.77S
$$

WAZ036>038-190200-
NORTHEAST WASHINGTON

CITY           SKY/WX    TMP DP  RH WIND       PRES   REMARKS
SPOKANE GEIGER CLOUDY    45  43  93 NE8       29.80F
SPOKANE FELTS  CLOUDY    47  44  90 CALM      29.83F
FAIRCHILD AFB  CLOUDY    45  45 100 NE12      29.78F
COEURDALENE,ID CLOUDY    46  44  93 N14       29.84F
DEER PARK      CLOUDY    45  41  86 NE10      29.83F
$$

WAZ029>033-190200-
SOUTHEAST WASHINGTON

CITY           SKY/WX    TMP DP  RH WIND       PRES   REMARKS
PULLMAN        CLOUDY    49  43  80 SE7       29.80F
LEWISTON, ID   CLOUDY    45  43  93 E3        29.79F FOG
WALLA WALLA    FOG       45  45 100 S8        29.77F VSB 1/4
PENDLETON, OR  CLOUDY    47  42  83 SW3       29.78F
$$



USA.gov is the U.S. government's official web portal to all federal, state and local government web resources and services.